Ezeiza, Argentina

1:46 AM ART on February 09, 2016 (GMT -0300)
Ezeiza International Ministro Pistarini

Weather History for SAEZ - January, 2013

Change the Weather History Date:

Sunday, January 27, 2013

  Actual Average Record
Temperature  
Mean Temperature 74 °F -  
Max Temperature 87 °F 83 °F 93 °F (2003)
Min Temperature 61 °F 62 °F 54 °F (2016)
Cooling Degree Days 9    
Growing Degree Days 24 (Base 50)    
Moisture  
Dew Point 54 °F    
Average Humidity 42    
Maximum Humidity 60    
Minimum Humidity 25    
Precipitation  
Precipitation 0.00 in 0.13 in - ()
Sea Level Pressure  
Sea Level Pressure 29.93 in    
Wind  
Wind Speed 6 mph ()    
Max Wind Speed 20 mph    
Max Gust Speed 24 mph    
Visibility 6.0 miles    
Events      
Averages and records for this station are not official NWS values.
T = Trace of Precipitation, MM = Missing Value Source: Averaged Metar Reports

Daily Weather History Graph

Daily Weather History Graph

Search for Another Location

Airport or City:

Trip Planner

Search our weather history database for the weather conditions in past years. The results will help you decide how hot, cold, wet, or windy it might be!

Date:

Astronomy

Jan. 27, 2013 Rise Set
Actual Time 6:09 AM ART 8:04 PM ART
Civil Twilight 5:41 AM ART 8:32 PM ART
Nautical Twilight 5:07 AM ART 9:05 PM ART
Astronomical Twilight 4:31 AM ART 9:41 PM ART
Moon 8:07 PM ART (1/27) 6:33 AM ART (1/27)
Length of Visible Light 14h 50m
Length of Day
13h 55m
Full, 100% of the Moon is Illuminated
Jan 27
Full
Feb 3
Last Quarter
Feb 10
New
Feb 17
First Quarter
Feb 25
Full

Hourly Weather History & Observations

Time (ART) Temp. Heat Index Dew Point Humidity Pressure Visibility Wind Dir Wind Speed Gust Speed Precip Events Conditions
12:00 AM 71 °F - 50 °F 37% 29.96 in 6 mi NNW 4.6 mph - -  
12:00 AM 71.6 °F - 50.0 °F 46% 29.95 in - North 2.3 mph - N/A   Clear
1:00 AM 69.8 °F - 50.0 °F 49% 29.95 in - North 4.6 mph - N/A   Clear
2:00 AM 68.0 °F - 50.0 °F 52% 29.95 in - NNW 3.5 mph - N/A   Clear
3:00 AM 68 °F - 51 °F 43% 29.95 in 6 mi NNW 3.5 mph - -  
3:00 AM 68.0 °F - 50.0 °F 52% 29.95 in - North 2.3 mph - N/A   Clear
4:00 AM 66.2 °F - 50.0 °F 56% 29.95 in - NNW 3.5 mph - N/A   Clear
5:00 AM 66.2 °F - 50.0 °F 56% 29.92 in - North 4.6 mph - N/A   Clear
6:00 AM 66 °F - 50 °F 45% 29.96 in 6 mi NNW 4.6 mph - -  
6:00 AM 66.2 °F - 50.0 °F 56% 29.95 in - North 4.6 mph - N/A   Clear
7:00 AM 66.2 °F - 51.8 °F 60% 29.95 in - North 6.9 mph - N/A   Clear
8:00 AM 71.6 °F - 53.6 °F 53% 29.98 in - North 9.2 mph - N/A   Clear
9:00 AM 74 °F - 52 °F 36% 29.99 in 6 mi NNW 19.6 mph - -   Clear
9:00 AM 73.4 °F - 51.8 °F 47% 29.98 in - NNW 10.4 mph - N/A   Clear
10:00 AM 77.0 °F - 51.8 °F 41% 29.98 in - North 10.4 mph - N/A   Clear
11:00 AM 78.8 °F - 50.0 °F 36% 29.98 in - North 11.5 mph - N/A   Clear
12:00 PM 82 °F - 52 °F 25% 29.97 in 6 mi NNW 10.4 mph - -  
12:00 PM 82.4 °F - 51.8 °F 35% 29.95 in - NNW 10.4 mph - N/A   Clear
1:00 PM 84.2 °F 82.8 °F 53.6 °F 35% 29.95 in - NNW 11.5 mph 24.2 mph N/A   Clear
2:00 PM 86.0 °F - 50.0 °F 29% 29.92 in - North 13.8 mph - N/A   Clear
3:00 PM 86 °F - 56 °F 26% 29.91 in 6 mi North 12.7 mph - -   Scattered Clouds
3:00 PM 86.0 °F 84.5 °F 55.4 °F 35% 29.92 in - North 11.5 mph - N/A   Clear
4:00 PM 86.0 °F 84.5 °F 55.4 °F 35% 29.89 in - North 12.7 mph - N/A   Clear
5:00 PM 87.8 °F 86.5 °F 57.2 °F 35% 29.89 in - North 9.2 mph 20.7 mph N/A   Clear
6:00 PM 88 °F - 60 °F 29% 29.88 in 6 mi NW 12.7 mph - -   Clear
6:00 PM 87.8 °F 87.6 °F 60.8 °F 40% 29.86 in - NNW 12.7 mph - N/A   Clear
7:00 PM 86.0 °F 86.1 °F 60.8 °F 43% 29.86 in - North 8.1 mph - N/A   Clear
8:00 PM 84.2 °F 84.4 °F 60.8 °F 45% 29.86 in - North 8.1 mph - N/A   Clear
9:00 PM 83 °F - 60 °F 35% 29.88 in 6 mi North 8.1 mph - -  
9:00 PM 82.4 °F 82.9 °F 60.8 °F 48% 29.89 in - North 8.1 mph - N/A   Clear
10:00 PM 82.4 °F 82.9 °F 60.8 °F 48% 29.89 in - NNE 9.2 mph - N/A   Clear
11:00 PM 80.6 °F 81.1 °F 59.0 °F 48% 29.92 in - North 8.1 mph - N/A   Clear